Location: Bothwell
(42.3833°S, 147.0000°E)
Time: 20:12:06
(UTC+11:00)

CUBESAT XI-V - Pass Details

Date: 02 October 2022
Orbit: 666 x 689 km, 98.1° (Epoch: 25 November)

Event Time Altitude Azimuth Distance (km) Brightness Sun altitude
Rises 05:07:39 0° 183° (S) 3,091 ? -18.2°
Reaches altitude 10° 05:10:34 10° 202° (SSW) 2,170 ? -17.7°
Enters shadow 05:13:38 18° 242° (WSW) 1,708 ? -17.1°
